GSAT0205 (GALILEO 9)    
1 40889U 15045A   19266.27502781  .00000027  00000-0  00000+0 0  9998
2 40889  56.3675 289.4765 0002520 325.1694  34.8711  1.70474988 25091
GSAT0206 (GALILEO 10)   
1 40890U 15045B   19264.73492662  .00000024  00000-0  00000+0 0  9992
2 40890  56.3680 289.5153 0002145 281.1723  78.8570  1.70475019 25095
FREGAT R/B              
1 40891U 15045C   19265.17082175  .00000023  00000-0  00000+0 0  9995
2 40891  56.3155 290.7749 0023686 215.5034 144.3945  1.67827382 24710